Volver al catálogo

STARLINK-30766

ActivoComunicacionesVLEO
NORAD 58125·PAYLOAD·🇺🇸 United States

Lanzado Oct 22, 2023 desde Cape Canaveral Space Force Station

Loading…

Próximos Pases (próximas 24 horas)

TLE

ActualizadoSource: CelesTrak SupGP

Época: Sep 15, 2026, 01:48 UTC

1 58125C 23162H   26258.07548611  .00063318  00000+0  22927-2 0  2582
2 58125  43.0000 139.7721 0001415 268.4620 266.2885 15.27556327    10

Sigue STARLINK-30766 en tiempo real con AllMySat

Download on the App Store